Oak Ridge, TN

4:00 AM EDT on October 21, 2017 (GMT -0400)
Oak Ridge

Weather History for KOQT - March, 2014

Change the Weather History Date:

Wednesday, March 26, 2014

  Actual Average (KTYS) Record (KTYS)
Temperature  
Mean Temperature 36 °F -  
Max Temperature 48 °F 61 °F 83 °F (1949)
Min Temperature 25 °F 37 °F 17 °F (1955)
Degree Days  
Heating Degree Days 28    
Moisture  
Dew Point 11 °F    
Average Humidity 38    
Maximum Humidity 60    
Minimum Humidity 20    
Precipitation  
Precipitation 0.00 in - - ()
Sea Level Pressure  
Sea Level Pressure 30.33 in    
Wind  
Wind Speed 4 mph (West)    
Max Wind Speed 7 mph    
Max Gust Speed -    
Visibility 10 miles    
Events      
Averages and records for this station are not official NWS values.
T = Trace of Precipitation, MM = Missing Value Source: NWS Daily Summary

Daily Weather History Graph

Daily Weather History Graph

Search for Another Location

Airport or City:

Trip Planner

Search our weather history database for the weather conditions in past years. The results will help you decide how hot, cold, wet, or windy it might be!

Date:

Astronomy

Mar. 26, 2014 Rise Set
Actual Time 7:31 AM EDT 7:53 PM EDT
Civil Twilight 7:06 AM EDT 8:19 PM EDT
Nautical Twilight 6:36 AM EDT 8:49 PM EDT
Astronomical Twilight 6:05 AM EDT 9:20 PM EDT
Moon 4:31 AM EDT (3/26) 3:38 PM EDT (3/26)
Length of Visible Light 13h 13m
Length of Day
12h 21m
Waning Crescent, 22% of the Moon is Illuminated
Mar 26
Waning Crescent
Mar 30
New
Apr 7
First Quarter
Apr 15
Full
Apr 22
Last Quarter

Hourly Weather History & Observations

Time (EDT) Temp. Windchill Dew Point Humidity Pressure Visibility Wind Dir Wind Speed Gust Speed Precip Events Conditions
12:53 AM 32.0 °F 28.7 °F 10.0 °F 40% 30.27 in 10.0 mi WNW 3.5 mph - N/A   Mostly Cloudy
1:53 AM 32.0 °F 26.4 °F 12.0 °F 44% 30.29 in 10.0 mi NNW 5.8 mph - N/A   Partly Cloudy
2:53 AM 30.9 °F 24.3 °F 10.9 °F 43% 30.29 in 10.0 mi NNW 6.9 mph - N/A   Clear
3:53 AM 30.0 °F 23.2 °F 10.9 °F 45% 30.29 in 10.0 mi North 6.9 mph - N/A   Clear
4:53 AM 28.0 °F 21.7 °F 12.0 °F 51% 30.30 in 10.0 mi Variable 5.8 mph - N/A   Clear
5:53 AM 28.0 °F - 10.9 °F 49% 30.32 in 10.0 mi Calm Calm - N/A   Clear
6:53 AM 26.1 °F - 12.9 °F 58% 30.34 in 10.0 mi Calm Calm - N/A   Clear
7:53 AM 25.0 °F - 12.9 °F 60% 30.37 in 10.0 mi Calm Calm - N/A   Clear
8:53 AM 30.0 °F 25.2 °F 10.0 °F 43% 30.39 in 10.0 mi NNW 4.6 mph - N/A   Clear
9:53 AM 30.9 °F - 10.0 °F 42% 30.40 in 10.0 mi Calm Calm - N/A   Clear
10:53 AM 34.0 °F 29.8 °F 10.0 °F 37% 30.42 in 10.0 mi SSW 4.6 mph - N/A   Clear
11:53 AM 36.0 °F - 10.0 °F 34% 30.42 in 10.0 mi Calm Calm - N/A   Clear
12:53 PM 37.9 °F 34.4 °F 8.1 °F 29% 30.40 in 10.0 mi West 4.6 mph - N/A   Clear
1:53 PM 41.0 °F 37.1 °F 7.0 °F 25% 30.38 in 10.0 mi West 5.8 mph - N/A   Clear
2:53 PM 44.1 °F - 7.0 °F 22% 30.35 in 10.0 mi North - - N/A   Clear
3:53 PM 45.0 °F 43.5 °F 7.0 °F 21% 30.34 in 10.0 mi Variable 3.5 mph - N/A   Clear
4:53 PM 48.0 °F - 8.1 °F 20% 30.31 in 10.0 mi Variable 3.5 mph - N/A   Clear
5:53 PM 46.9 °F - 9.0 °F 21% 30.30 in 10.0 mi SE 5.8 mph - N/A   Clear
6:53 PM 46.0 °F 43.9 °F 9.0 °F 22% 30.30 in 10.0 mi SSE 4.6 mph - N/A   Clear
7:53 PM 45.0 °F 43.5 °F 9.0 °F 23% 30.31 in 10.0 mi South 3.5 mph - N/A   Clear
8:53 PM 41.0 °F - 12.0 °F 31% 30.30 in 10.0 mi Calm Calm - N/A   Clear
9:53 PM 37.9 °F - 15.1 °F 39% 30.30 in 10.0 mi Calm Calm - N/A   Clear
10:53 PM 35.1 °F - 18.0 °F 50% 30.31 in 10.0 mi Calm Calm - N/A   Clear
11:53 PM 33.1 °F - 19.0 °F 56% 30.32 in 10.0 mi Calm Calm - N/A   Clear